Wind_Speed
55 54 53 52 51 51 52 53 50 46 45 46 46 47 47 45 42 41 42 44 45 45 45 44 44 44 43 41 39 38 36 35 36 36 35 33 32 32 31 31 32 33
55 55 56 54 53 51 50 51 51 48 47 47 47 47 46 45 43 42 41 43 44 45 45 45 44 44 44 42 39 38 37 37 37 36 35 34 33 32 31 31 32 33
58 57 57 56 54 53 50 49 49 49 49 49 47 45 44 45 46 44 43 43 44 45 46 45 44 44 44 42 39 38 37 37 38 36 35 34 33 32 32 31 32 33
62 60 59 58 55 54 52 49 47 47 49 50 48 46 45 46 47 45 44 44 45 45 45 45 45 45 45 42 39 38 38 38 38 36 35 35 34 33 33 33 32 32
65 63 61 60 57 55 54 51 47 46 48 50 49 47 46 47 48 46 46 46 44 44 46 46 46 46 44 40 38 37 37 37 36 35 35 35 34 34 34 34 33 33
67 65 63 62 60 57 56 53 50 48 48 50 51 50 48 48 48 47 47 47 44 44 46 47 46 46 43 38 35 34 34 35 35 34 35 35 35 35 35 35 35 35
69 68 65 63 62 60 58 56 54 52 50 51 53 53 51 51 50 49 49 48 45 45 47 49 48 47 44 37 32 30 31 33 33 34 35 35 35 35 36 36 36 36
72 72 68 64 63 62 61 59 58 54 51 53 54 53 53 54 53 51 50 47 46 47 49 51 51 49 44 37 31 30 32 34 34 34 35 35 35 35 36 36 37 38
74 74 70 66 64 64 63 61 60 57 53 54 55 53 51 53 54 53 51 49 49 49 49 53 54 50 44 38 34 34 35 35 36 36 36 35 35 35 36 37 38 39
75 74 72 68 66 66 65 62 61 60 56 54 56 55 52 52 54 54 53 52 53 54 54 57 58 51 45 40 38 37 37 37 37 37 36 36 35 36 37 37 38 39
74 74 73 71 69 67 67 65 63 62 60 57 57 57 56 55 55 56 55 54 56 58 58 60 60 55 48 44 41 40 39 38 38 37 36 36 36 37 37 38 38 39
72 73 73 72 71 70 69 67 65 64 63 61 59 59 59 58 57 58 59 58 58 60 60 60 62 59 53 47 44 42 40 39 38 38 36 36 37 38 38 38 38 39
70 71 72 73 74 73 72 70 68 66 65 64 63 62 61 61 60 61 62 61 61 61 62 62 63 61 57 51 45 42 39 38 38 37 36 36 37 38 38 38 38 40
70 70 71 73 75 75 74 73 71 69 68 66 65 65 64 64 64 65 65 64 63 63 63 64 63 62 59 53 46 41 39 38 37 36 36 37 37 38 39 39 39 40
70 70 70 72 75 75 75 75 75 73 72 69 68 68 68 67 67 68 67 66 65 64 64 64 63 62 59 55 48 41 39 38 37 37 37 38 38 39 40 41 41 41
70 70 70 71 73 76 76 76 76 76 75 73 72 71 70 70 70 69 68 65 64 63 62 61 61 60 58 54 49 43 39 39 39 39 39 40 40 41 42 43 43 43
70 69 70 70 72 75 76 75 75 75 73 72 72 71 70 69 69 68 66 64 61 59 58 58 58 59 58 55 50 45 43 42 42 41 42 42 43 44 43 45 46 45
72 70 70 69 70 72 74 74 73 73 71 68 68 69 69 68 67 65 64 62 60 57 55 55 57 59 60 58 53 50 47 45 43 42 43 45 46 46 45 46 48 47
75 74 71 67 63 63 65 68 69 69 69 67 67 68 69 69 67 65 63 62 61 60 58 58 58 61 63 63 60 56 51 47 45 44 44 46 47 47 46 48 49 49
76 76 74 68 61 59 63 66 66 67 69 69 68 69 70 70 70 69 66 65 64 64 63 62 62 63 65 66 65 60 54 49 47 46 46 47 47 48 47 48 49 49
77 77 77 72 66 64 65 64 62 64 68 70 71 70 70 70 70 70 69 68 67 66 65 64 64 66 67 68 68 62 54 50 48 47 47 48 48 49 48 48 49 49
79 78 77 74 70 67 62 58 57 61 65 67 71 73 72 71 72 71 71 70 68 68 67 66 66 67 68 70 69 62 54 50 48 46 47 50 52 51 49 48 49 49
82 80 78 77 76 72 63 56 57 63 66 65 68 72 71 71 72 73 73 72 70 69 69 68 69 69 70 70 68 62 56 50 46 44 46 51 54 52 50 50 52 51
85 82 80 79 80 77 69 60 61 67 69 67 66 69 69 68 69 70 70 69 68 67 67 68 68 69 69 69 66 62 56 50 46 46 50 53 54 52 51 52 54 53
88 85 82 82 82 80 73 66 65 68 68 66 65 66 66 65 65 64 63 63 63 64 64 63 63 64 65 64 62 59 54 48 47 50 53 55 54 53 51 51 51 52
92 88 85 84 85 83 77 70 67 66 65 64 64 64 63 61 60 59 59 58 59 61 61 59 58 58 58 57 55 53 49 46 48 50 51 52 53 52 51 50 48 48
Wind_Direction
228 227 229 231 230 230 231 230 229 230 236 240 242 243 244 245 246 248 252 255 258 261 264 266 270 273 276 279 284 288 292 295 301 305 304 303 305 307 311 315 318 320
226 226 228 230 229 229 230 233 233 232 235 240 242 243 245 246 246 246 249 253 256 258 262 265 268 272 275 279 283 286 290 293 298 302 302 301 303 305 308 312 315 317
224 224 227 229 229 229 229 231 235 237 237 239 242 243 244 246 247 246 247 250 254 258 262 265 269 272 275 279 283 285 288 292 295 298 299 300 301 303 306 309 312 315
224 223 225 226 228 228 228 228 233 237 238 239 241 241 242 246 248 249 250 252 255 259 263 266 268 271 275 279 282 284 288 292 294 295 296 298 300 301 303 307 310 313
225 224 224 224 225 227 227 226 228 233 237 240 241 242 243 246 248 251 252 254 257 260 263 266 268 270 273 277 281 284 287 291 292 292 293 296 298 300 302 305 309 312
224 225 225 223 223 225 226 225 226 228 232 237 241 242 242 245 248 251 253 254 256 259 262 265 267 269 272 276 279 283 288 290 290 290 292 295 297 299 301 304 307 310
222 224 225 224 223 224 224 224 225 226 229 234 239 242 243 244 247 248 251 254 256 257 260 263 264 267 270 274 277 282 288 289 288 288 291 293 296 298 300 303 305 307
223 224 225 225 224 225 224 224 225 225 227 231 236 241 243 245 247 248 250 253 254 255 258 261 263 266 270 274 277 282 286 286 285 286 288 291 294 296 298 301 303 304
225 225 225 225 225 225 225 225 225 226 227 229 232 237 241 244 246 247 248 248 249 251 254 260 264 268 272 275 278 282 284 283 283 284 286 288 291 293 296 298 300 302
227 226 226 225 226 226 225 225 225 227 228 228 229 232 237 241 244 247 247 246 247 249 252 258 266 271 274 276 279 281 282 282 282 282 284 286 289 291 294 297 299 300
228 228 226 225 226 227 226 225 225 227 229 230 230 230 233 237 241 245 246 246 248 251 254 260 266 271 273 276 278 279 280 280 280 281 283 285 287 290 292 296 298 299
229 229 227 226 226 227 227 227 226 227 229 230 231 232 232 234 238 243 246 247 249 253 257 260 265 270 272 275 276 277 278 278 279 281 283 284 286 289 292 296 299 299
229 229 229 228 227 227 227 227 228 229 230 231 232 234 234 235 237 241 246 248 250 254 257 260 264 268 271 273 274 274 274 275 279 282 282 283 286 289 292 296 300 300
229 229 230 229 229 229 229 228 229 230 231 231 232 235 237 238 240 243 246 250 252 255 258 261 264 267 270 271 272 272 271 274 279 282 281 283 286 290 293 296 300 302
229 229 230 230 229 229 230 231 231 231 232 233 234 236 239 241 243 245 247 250 253 256 259 262 264 266 268 269 270 270 269 272 279 282 282 282 287 291 293 296 299 302
229 228 230 230 228 229 230 232 233 234 234 235 237 239 241 243 244 245 247 249 253 257 259 262 263 265 266 268 269 269 269 273 279 283 281 282 287 293 296 297 299 301
229 229 230 230 228 228 230 232 234 235 236 238 240 240 240 242 243 244 246 249 252 256 258 260 263 264 266 267 270 271 273 277 281 282 280 281 288 295 297 298 299 301
230 231 231 231 230 231 232 234 235 236 237 239 240 239 239 240 241 243 246 249 252 254 257 260 263 266 268 270 271 273 275 280 283 283 282 284 290 296 298 298 299 300
228 230 231 231 233 235 237 239 240 240 239 239 238 237 237 237 238 242 246 248 250 252 254 258 261 265 269 272 273 275 277 282 285 286 287 288 292 296 297 297 298 299
225 228 228 226 228 233 236 238 242 243 241 240 239 238 238 238 238 241 245 247 250 252 254 257 260 263 267 270 273 275 278 282 286 288 289 291 293 295 296 296 297 299
223 225 225 223 224 228 228 229 236 242 243 241 241 240 239 240 241 243 246 248 250 251 253 255 258 261 265 268 271 274 278 282 285 288 291 293 292 292 292 294 295 297
221 223 223 222 224 227 224 222 228 239 243 243 241 240 240 241 243 245 247 248 250 251 251 253 255 258 261 265 269 274 278 281 284 289 293 292 289 287 288 290 292 294
220 220 220 219 223 227 227 224 226 235 244 247 243 240 241 241 242 244 245 246 248 250 251 252 254 256 258 262 267 272 276 279 282 285 285 282 280 282 286 288 289 290
219 218 218 219 223 227 230 231 230 235 244 248 243 239 240 240 241 242 243 245 247 249 251 253 255 256 258 261 265 269 272 275 276 275 273 271 273 277 282 284 286 287
218 217 217 220 224 227 229 233 233 236 242 244 240 237 239 240 241 242 244 246 249 251 254 256 258 258 260 262 265 268 270 271 270 269 269 271 273 276 278 280 282 284
217 217 218 220 223 225 227 231 233 236 238 238 237 237 239 240 242 243 245 248 251 254 256 257 259 260 262 264 266 267 267 267 267 268 269 270 272 274 275 276 279 281
Height
10703 10707 10709 10712 10716 10718 10719 10721 10724 10727 10730 10732 10734 10736 10739 10743 10747 10749 10750 10751 10752 10753 10755 10756 10757 10757 10758 10760 10761 10761 10760 10760 10761 10761 10760 10760 10759 10759 10758 10757 10756 10755
10697 10701 10704 10708 10711 10714 10716 10717 10720 10723 10726 10728 10730 10732 10735 10738 10742 10744 10746 10747 10749 10750 10751 10752 10753 10754 10755 10756 10757 10757 10757 10757 10758 10758 10757 10757 10756 10756 10756 10755 10754 10753
10691 10696 10700 10703 10706 10708 10711 10713 10716 10718 10721 10724 10726 10728 10731 10733 10735 10739 10742 10743 10745 10746 10747 10748 10750 10750 10751 10753 10753 10753 10754 10754 10755 10755 10754 10754 10753 10753 10753 10752 10751 10750
10685 10690 10693 10697 10700 10703 10706 10710 10712 10714 10717 10720 10722 10724 10726 10727 10729 10733 10736 10738 10740 10742 10743 10744 10746 10747 10748 10749 10749 10750 10750 10751 10751 10751 10751 10750 10750 10749 10749 10749 10748 10747
10680 10684 10688 10691 10695 10699 10702 10706 10709 10711 10713 10715 10717 10720 10722 10723 10725 10728 10731 10733 10736 10738 10739 10740 10742 10743 10744 10745 10746 10747 10747 10747 10748 10748 10748 10747 10747 10746 10745 10745 10745 10744
10675 10679 10683 10687 10691 10694 10698 10702 10704 10707 10710 10711 10713 10715 10718 10719 10721 10724 10726 10728 10732 10734 10734 10735 10737 10738 10740 10742 10743 10744 10744 10744 10745 10745 10744 10744 10743 10743 10742 10741 10741 10741
10669 10673 10678 10682 10687 10690 10693 10696 10698 10702 10706 10707 10708 10711 10713 10715 10717 10719 10721 10723 10727 10729 10730 10731 10732 10734 10736 10738 10740 10741 10742 10742 10742 10742 10741 10741 10740 10740 10739 10738 10737 10737
10663 10667 10672 10678 10682 10685 10688 10691 10694 10698 10703 10704 10704 10706 10708 10710 10712 10715 10717 10720 10722 10724 10725 10726 10727 10729 10732 10735 10737 10738 10739 10739 10739 10739 10739 10738 10738 10737 10736 10735 10734 10733
10655 10661 10667 10673 10677 10681 10684 10687 10689 10694 10698 10700 10701 10702 10704 10705 10707 10710 10713 10716 10717 10719 10720 10720 10721 10724 10727 10731 10733 10735 10735 10735 10735 10735 10736 10736 10735 10734 10733 10732 10730 10729
10649 10655 10662 10668 10672 10676 10679 10683 10685 10689 10693 10696 10697 10699 10700 10701 10701 10704 10707 10711 10712 10713 10714 10714 10715 10719 10723 10726 10729 10730 10731 10732 10732 10732 10732 10733 10732 10731 10730 10729 10727 10726
10643 10649 10656 10662 10667 10671 10675 10678 10681 10684 10688 10691 10693 10696 10697 10697 10698 10698 10701 10704 10705 10707 10709 10710 10710 10714 10718 10721 10724 10726 10727 10727 10728 10728 10729 10729 10729 10728 10727 10726 10725 10723
10638 10644 10651 10656 10661 10665 10669 10672 10676 10679 10682 10686 10689 10691 10693 10694 10695 10694 10695 10699 10701 10701 10704 10706 10707 10709 10713 10717 10719 10722 10723 10723 10724 10724 10725 10726 10725 10725 10724 10723 10721 10720
10635 10640 10646 10651 10654 10658 10662 10667 10671 10674 10677 10680 10684 10687 10689 10691 10691 10690 10691 10693 10696 10698 10700 10702 10703 10705 10709 10712 10715 10717 10718 10719 10720 10721 10722 10722 10722 10721 10720 10719 10718 10717
10630 10635 10640 10644 10648 10652 10656 10661 10665 10668 10671 10675 10680 10682 10685 10687 10688 10687 10688 10689 10691 10694 10696 10697 10699 10702 10704 10707 10710 10712 10714 10715 10716 10717 10718 10719 10719 10718 10717 10716 10715 10713
10624 10628 10633 10637 10642 10647 10651 10655 10658 10662 10665 10670 10674 10678 10680 10683 10684 10685 10686 10687 10688 10690 10691 10693 10695 10697 10698 10701 10705 10708 10711 10712 10713 10714 10714 10715 10715 10714 10713 10712 10711 10709
10618 10622 10626 10630 10636 10640 10644 10648 10652 10655 10660 10664 10669 10673 10676 10679 10681 10682 10684 10685 10685 10686 10687 10689 10690 10691 10692 10695 10699 10703 10707 10708 10709 10711 10711 10711 10711 10710 10709 10708 10706 10705
10611 10616 10620 10625 10630 10634 10637 10642 10645 10649 10655 10659 10663 10667 10671 10674 10677 10679 10681 10681 10682 10683 10684 10684 10685 10685 10687 10690 10694 10698 10701 10704 10705 10707 10707 10707 10706 10706 10705 10703 10702 10701
10607 10612 10615 10619 10624 10628 10632 10637 10640 10645 10650 10654 10658 10661 10664 10667 10671 10674 10676 10677 10679 10680 10680 10680 10680 10679 10680 10684 10688 10692 10696 10699 10701 10702 10703 10702 10702 10701 10700 10698 10697 10696
10601 10606 10611 10616 10621 10625 10629 10632 10636 10641 10646 10650 10652 10654 10656 10660 10664 10667 10669 10672 10674 10675 10676 10676 10676 10675 10675 10677 10681 10686 10691 10695 10697 10698 10698 10697 10697 10696 10695 10693 10692 10692
10594 10599 10604 10609 10614 10617 10621 10625 10629 10634 10639 10643 10646 10647 10650 10653 10656 10659 10662 10665 10668 10670 10671 10672 10673 10673 10673 10673 10675 10680 10686 10690 10692 10693 10693 10692 10691 10690 10690 10688 10687 10686
10587 10592 10596 10602 10606 10608 10610 10614 10621 10627 10631 10635 10639 10642 10645 10648 10651 10654 10657 10659 10661 10664 10665 10667 10668 10669 10669 10669 10670 10675 10681 10686 10688 10689 10688 10687 10685 10684 10683 10682 10681 10681
10579 10584 10590 10596 10600 10603 10605 10606 10612 10620 10624 10627 10631 10635 10638 10642 10646 10649 10651 10653 10655 10657 10660 10662 10664 10664 10665 10665 10666 10670 10676 10681 10683 10684 10684 10681 10678 10676 10677 10677 10676 10675
10570 10576 10582 10587 10591 10597 10602 10603 10606 10613 10617 10619 10624 10627 10631 10635 10638 10640 10643 10646 10649 10652 10654 10657 10658 10659 10661 10662 10663 10666 10671 10676 10679 10681 10680 10676 10671 10671 10672 10672 10670 10670
10562 10568 10574 10579 10583 10590 10597 10601 10603 10606 10610 10613 10617 10620 10624 10628 10630 10633 10636 10640 10643 10646 10648 10651 10653 10654 10656 10657 10659 10662 10666 10670 10673 10674 10672 10668 10666 10667 10668 10668 10665 10664
10553 10560 10566 10571 10576 10582 10588 10593 10597 10600 10603 10607 10610 10614 10618 10621 10624 10628 10631 10635 10638 10640 10643 10645 10647 10649 10650 10652 10654 10657 10659 10663 10666 10665 10662 10660 10660 10661 10663 10662 10660 10657
10543 10551 10558 10563 10568 10574 10579 10584 10588 10593 10597 10601 10605 10608 10612 10615 10619 10623 10626 10629 10632 10634 10637 10640 10642 10643 10645 10646 10648 10650 10652 10656 10657 10657 10655 10654 10653 10654 10655 10655 10653 10652